AO-07 1 07530U 74089B 20177.54970674 -.00000037 00000-0 49229-4 0 9993 2 07530 101.7999 147.2452 0012233 350.6930 118.6265 12.53643907087009 UO-11 1 14781U 84021B 20177.58747912 .00000022 00000-0 88059-5 0 9995 2 14781 097.5894 189.1578 0008779 164.4602 195.6884 14.83174283933038 LO-19 1 20442U 90005G 20177.40261691 .00000006 00000-0 18445-4 0 9994 2 20442 098.6926 124.6784 0012641 127.9264 232.3064 14.32955301589691 HUBBLE 1 20580U 90037B 20177.56506322 .00000321 00000-0 84829-5 0 9992 2 20580 028.4694 266.0158 0002633 174.0472 307.2716 15.09400324457197 MET-2/21 1 22782U 93055A 20177.48746809 -.00000005 00000-0 -17513-4 0 9994 2 22782 082.5490 227.2059 0021758 209.5631 267.1961 13.83826220354152 AO-27 1 22825U 93061C 20177.55870462 -.00000028 00000-0 71909-5 0 9994 2 22825 098.9229 180.2151 0008392 001.4786 358.6419 14.30087354394979 IO-26 1 22826U 93061D 20177.54322043 -.00000020 00000-0 10123-4 0 9993 2 22826 098.9170 180.1454 0008676 349.0912 011.0081 14.30423139395204 FO-29 1 24278U 96046B 20177.59747212 -.00000022 00000-0 15192-4 0 9999 2 24278 098.5847 286.3611 0350237 353.9344 005.7609 13.53097453177983 NOAA-15 1 25338U 98030A 20177.57356186 .00000064 00000-0 45240-4 0 9998 2 25338 098.7160 202.5832 0009413 235.3048 124.7246 14.25974654150131 GO-32 1 25397U 98043D 20177.45716788 -.00000017 00000-0 11790-4 0 9994 2 25397 098.7286 118.8936 0002202 060.7386 299.4012 14.23686611140695 ISS 1 25544U 98067A 20177.54743984 .00000643 00000-0 19557-4 0 9995 2 25544 051.6448 307.0852 0002519 082.7533 354.3691 15.49459678233311 NO-44 1 26931U 01043C 20177.55875938 -.00000031 00000-0 19879-4 0 9999 2 26931 067.0510 121.4785 0005877 272.3317 087.7111 14.30580399978238 SO-50 1 27607U 02058C 20177.56822822 -.00000053 00000-0 13038-4 0 9997 2 27607 064.5558 349.5579 0046928 174.6811 185.4800 14.75642194941920 CO-55 1 27844U 03031E 20177.59303151 .00000019 00000-0 28056-4 0 9991 2 27844 098.6809 185.2052 0010620 038.1078 322.0848 14.22243768881256 CO-57 1 27848U 03031J 20177.55168200 .00000008 00000-0 23514-4 0 9997 2 27848 098.6876 185.7222 0010687 049.5228 310.6879 14.21829828881099 RS-22 1 27939U 03042A 20177.50370202 .00000072 00000-0 21664-4 0 9997 2 27939 098.0934 312.2169 0012179 333.2766 026.7809 14.66867309895193 NOAA-18 1 28654U 05018A 20177.59236124 .00000087 00000-0 71629-4 0 9992 2 28654 099.0430 234.0973 0013900 204.0527 155.9996 14.12520512778068 CO-58 1 28895U 05043F 20177.34346516 .00000089 00000-0 25973-4 0 9990 2 28895 098.0109 313.4780 0015448 254.3832 105.5666 14.63777831781761 Falconsat-3 1 30776U 07006E 20177.53824260 .00001248 00000-0 34221-4 0 9994 2 30776 035.4335 228.2866 0003251 259.7523 100.2838 15.37841238738086 CO-65 1 32785U 08021C 20177.39870711 .00000115 00000-0 17949-4 0 9990 2 32785 097.5727 165.0657 0014582 105.1859 255.0972 14.88480119659052 AAUSAT2 1 32788U 08021F 20177.55085321 .00000550 00000-0 55066-4 0 9991 2 32788 097.4904 181.6898 0012591 035.7100 324.4961 14.95074250660523 DO-64 1 32789U 08021G 20177.56390490 .00000426 00000-0 31829-4 0 9992 2 32789 097.4173 220.0823 0010320 291.0528 068.9596 15.07755442663033 CO-66 1 32791U 08021J 20177.25169091 .00000231 00000-0 28662-4 0 9997 2 32791 097.5405 171.0578 0014939 078.0808 282.2085 14.91061049659541 RS-30 1 32953U 08025A 20177.52575861 .00000037 00000-0 19437-3 0 9990 2 32953 082.5026 272.8795 0019556 039.6158 320.6341 12.43096709548631 PRISM 1 33493U 09002B 20177.54174222 -.00000166 00000-0 -88193-5 0 9996 2 33493 098.1452 118.1690 0016128 032.7896 327.4322 14.97057503620914 NOAA-19 1 33591U 09005A 20177.52598837 .00000066 00000-0 60846-4 0 9999 2 33591 099.1948 183.0838 0014860 055.9548 304.3032 14.12417153586271 TISAT-1 1 36799U 10035E 20177.55519139 .00000360 00000-0 42218-4 0 9998 2 36799 098.1949 348.1397 0011070 307.6498 052.3714 14.91369334540135 JUGNU 1 37839U 11058B 20177.48874310 .00000298 00000-0 17053-4 0 9996 2 37839 019.9600 234.0397 0019057 116.4349 009.8980 14.12682412449928 SRMSAT 1 37841U 11058D 20177.57246015 .00000310 00000-0 25445-4 0 9993 2 37841 019.9728 298.0298 0011887 333.6724 122.3263 14.10661749449311 AO-71 1 37854U 11061E 20177.52978619 .00000598 00000-0 37881-4 0 9993 2 37854 101.7006 272.9433 0158222 037.8201 323.4006 15.07318548472693 HRBE 1 37855U 11061F 20177.48094218 .00000651 00000-0 39897-4 0 9992 2 37855 101.7136 270.0244 0170881 051.1609 310.4715 15.06341982472413 HORYU-2 1 38340U 12025D 20177.41371843 .00000097 00000-0 22073-4 0 9990 2 38340 098.2798 231.1414 0011839 022.7415 337.4316 14.75861261425720 RS-40 1 38735U 12041C 20177.50188810 .00000030 00000-0 14655-3 0 9999 2 38735 082.4762 355.6443 0017298 141.8604 218.3703 12.42580281358854 BEESAT-3 1 39135U 13015F 20177.54182138 .00000611 00000-0 39209-4 0 9995 2 39135 064.8673 275.2885 0035848 245.3474 114.3918 15.18200316396441 BEESAT-2 1 39136U 13015G 20177.59267689 .00000494 00000-0 34239-4 0 9993 2 39136 064.8706 280.1235 0031280 278.6105 081.1478 15.17585870396351 ZACUBE-1 1 39417U 13066B 20177.53855582 .00000109 00000-0 20216-4 0 9993 2 39417 097.5645 175.1118 0057287 250.9338 108.5666 14.81283421356230 TRITON-1 1 39427U 13066M 20177.45327134 .00000173 00000-0 35350-4 0 9998 2 39427 097.7261 137.9366 0114976 052.9544 308.2111 14.68009941352830 GOMX-1 1 39430U 13066Q 20177.41574548 .00000078 00000-0 22998-4 0 9999 2 39430 097.7917 115.4644 0151168 159.0080 201.7410 14.59404924350961 LO-74 1 39440U 13066AA 20177.55670095 .00000125 00000-0 24501-4 0 9994 2 39440 097.6310 159.6099 0079002 314.7821 044.6981 14.76019566353773 AO-73 1 39444U 13066AE 20177.53167395 .00000155 00000-0 25402-4 0 9994 2 39444 097.5587 177.3406 0056458 242.9008 116.6440 14.82137883354568 SPROUT 1 39770U 14029E 20177.55434786 .00000487 00000-0 59475-4 0 9994 2 39770 097.8979 283.7973 0007929 309.1400 050.9084 14.87778108330261 DUCHIFAT-1 1 40021U 14033M 20177.40028479 .00000149 00000-0 20937-4 0 9998 2 40021 097.9429 108.6850 0011283 261.1831 098.8109 14.90916949327070 NANOSATCBR1 1 40024U 14033Q 20177.56192231 .00000195 00000-0 26076-4 0 9997 2 40024 097.9275 105.2024 0010665 265.6745 094.3253 14.90084653326443 DTUSAT-2 1 40030U 14033W 20177.55082121 .00000125 00000-0 19409-4 0 9994 2 40030 097.9032 099.3095 0010364 269.4656 090.5373 14.88722588326210 EO-80 1 40032U 14033Y 20177.56999050 .00000122 00000-0 19161-4 0 9997 2 40032 097.9039 099.3310 0010289 270.4291 089.5747 14.88671811326194 ANTELSAT 1 40034U 14033AA 20177.54619448 .00000110 00000-0 23710-4 0 9999 2 40034 097.7137 032.8521 0058031 334.0328 025.7972 14.74264270323072 VELOX-1 1 40057U 14034E 20177.62540373 .00000161 00000-0 30003-4 0 9993 2 40057 098.2814 314.8149 0012204 117.0987 243.1469 14.77881951322841 DAURIA DX 1 1 40071U 14037C 20177.48724517 .00000043 00000-0 13042-4 0 9993 2 40071 098.4600 356.3331 0009622 108.5798 251.6462 14.81370796322449 HODOYOSHI-1 1 40299U 14070B 20177.53727598 .00000365 00000-0 17899-4 0 9991 2 40299 097.3222 254.0876 0013418 160.1042 315.0283 15.24082145313049 CHUBUSAT-1 1 40300U 14070C 20177.50213755 .00000421 00000-0 21041-4 0 9993 2 40300 097.2882 246.4239 0019428 180.5089 307.5063 15.22524293312735 QSAT-EOS 1 40301U 14070D 20177.58412097 .00001064 00000-0 42574-4 0 9990 2 40301 097.2927 251.8412 0025881 155.9551 310.0000 15.26977076313173 FIREBIRD FU3 1 40377U 15003B 20177.42492076 .00000730 00000-0 32312-4 0 9996 2 40377 099.0943 239.2605 0122533 287.6566 071.1315 15.20094446298518 FIREBIRD FU4 1 40378U 15003C 20177.40908789 .00000734 00000-0 32425-4 0 9997 2 40378 099.0945 239.3405 0122717 287.5702 071.2153 15.20110351298510 GRIFEX 1 40379U 15003D 20177.46435087 .00000564 00000-0 28161-4 0 9993 2 40379 099.1014 231.2783 0131859 312.7318 046.2870 15.16441849298051 NO-84 1 40654U 15025D 20176.25436177 .00008940 00000-0 10656-3 0 9670 2 40654 54.9877 269.3342 0114642 204.3378 155.2141 15.54426516170089 DEORBITSAIL 1 40719U 15032E 20177.49516032 .00000249 00000-0 42348-4 0 9999 2 40719 097.8694 065.9394 0016087 176.7046 183.4273 14.77013000267281 NUDT-PHONESAT 1 40900U 15049B 20177.54203101 .00001354 00000-0 58569-4 0 9995 2 40900 097.4293 188.4246 0011435 322.4742 194.9199 15.24143730264420 XW-2A 1 40903U 15049E 20177.62237123 .00001263 00000-0 30443-4 0 9998 2 40903 097.2868 226.5802 0011730 228.4175 282.8367 15.43119850267732 XW-2C 1 40906U 15049H 20177.50184424 .00000192 00000-0 13420-4 0 9999 2 40906 097.4759 178.7315 0014509 352.9801 125.1198 15.16084733263478 XW-2D 1 40907U 15049J 20177.55621803 .00000302 00000-0 19033-4 0 9991 2 40907 097.4747 178.4936 0013876 350.0629 105.5465 15.16319790263502 LILACSAT-2 1 40908U 15049K 20177.58211198 .00000052 00000-0 64518-5 0 9998 2 40908 097.4900 176.8586 0015752 359.4977 148.1921 15.14049208263222 XW-2E 1 40909U 15049L 20177.46023418 .00000679 00000-0 36209-4 0 9992 2 40909 097.4621 181.8918 0013021 341.1895 153.5397 15.18452229263741 XW-2F 1 40910U 15049M 20177.48251499 .00000758 00000-0 40607-4 0 9993 2 40910 097.4667 181.0054 0014105 339.7997 172.5352 15.17962093263551 XW-2B 1 40911U 15049N 20177.61111120 .00000545 00000-0 31612-4 0 9995 2 40911 097.4755 179.2427 0013871 351.1070 129.3867 15.16247100263401 DCBB 1 40912U 15049P 20177.58965706 .00000683 00000-0 34536-4 0 9990 2 40912 097.4465 185.2681 0013626 315.3483 163.1428 15.20357244263952 TW-1C 1 40926U 15051B 20177.43189515 .00014397 00000-0 14118-3 0 9998 2 40926 097.0822 229.2593 0007276 070.6616 055.1541 15.66149738268277 TW-1A 1 40928U 15051D 20177.58719956 .00001815 00000-0 43482-4 0 9992 2 40928 097.1074 205.2193 0011413 148.9601 008.0983 15.42650909266625 IO-86 1 40931U 15052B 20176.71123483 .00000646 00000-0 85046-6 0 9990 2 40931 5.9962 283.7145 0013395 18.4244 341.7667 14.76637159256336 LQSat 1 40958U 15057A 20177.13324642 -.00000003 00000-0 70634-5 0 9995 2 40958 097.8520 240.2577 0019390 123.1030 237.2043 14.73122859253641 ATHENOXAT-1 1 41168U 15077C 20177.19979167 .00001386 00000-0 36614-4 0 9998 2 41168 14.9895 4.5848 0011404 236.6046 90.4180 15.14396763250514 ChubuSat-2 1 41338U 16012B 20177.61873373 .00000223 00000-0 10486-4 0 9994 2 41338 031.0038 294.5183 0013701 198.2159 161.7987 15.00299811238968 ChubuSat-3 1 41339U 16012C 20177.47943174 .00000236 00000-0 11504-4 0 9992 2 41339 031.0136 293.0302 0013189 205.1144 154.8858 15.00464241238946 Horyu-4 1 41340U 16012D 20177.60920797 .00000306 00000-0 16394-4 0 9995 2 41340 031.0053 279.8497 0013919 230.4310 129.5097 15.01508831239108 OUFTI-1 1 41458U 16025C 20177.58435107 .00001918 00000-0 98970-4 0 9992 2 41458 098.1064 288.5899 0163532 181.8471 178.2172 15.06876381228703 e-st@r-II 1 41459U 16025D 20177.36660132 .00001469 00000-0 77388-4 0 9998 2 41459 098.1066 287.7688 0165329 184.6234 175.3468 15.06439853228634 AAUSAT4 1 41460U 16025E 20177.42547771 .00001601 00000-0 81490-4 0 9997 2 41460 098.1050 290.1880 0154261 173.0808 187.2580 15.08750860228849 LO-87 1 41557U 16033B 20177.56487330 .00000729 00000-0 29301-4 0 9995 2 41557 097.4038 267.7352 0015007 063.0934 297.1837 15.28040323227012 NuSat2 1 41558U 16033C 20177.51974831 .00000816 00000-0 30643-4 0 9996 2 41558 097.4094 270.0229 0013996 060.9198 299.3443 15.30028655227124 Lapan A3 1 41603U 16040E 20177.50977557 -.00000004 00000-0 29189-5 0 9996 2 41603 097.3080 230.8026 0013929 167.3912 313.1066 15.19843289222362 Swayam 1 41607U 16040J 20177.40667791 .00000950 00000-0 41690-4 0 9994 2 41607 097.3169 236.5896 0013922 152.3181 207.8801 15.24260656222630 Pratham 1 41783U 16059A 20177.40571829 .00000025 00000-0 14079-4 0 9999 2 41783 098.0156 232.6419 0032194 292.0915 067.6870 14.63060586200047 AlSat 1N 1 41789U 16059G 20177.41632362 .00000057 00000-0 19728-4 0 9997 2 41789 098.0199 235.4885 0026996 279.1874 080.6281 14.64325790200190 ScatSat 1 41790U 16059H 20177.39681816 .00000006 00000-0 12385-4 0 9990 2 41790 098.1601 217.4476 0004442 257.8119 102.2581 14.50920992198374 TY-1 1 41844U 16066D 20177.58276917 .00000501 00000-0 23028-4 0 9997 2 41844 097.4018 185.6600 0013792 320.8538 191.8879 15.24865820201501 Pegasus-1 1 41846U 16066F 20177.43128159 .00000197 00000-0 40614-4 0 9998 2 41846 098.6607 227.5714 0366317 209.2743 148.7471 14.37775759190111 CAS-2T 1 41847U 16066G 20177.41687356 .00000050 00000-0 18263-4 0 9999 2 41847 098.6532 228.0147 0365205 205.0376 153.2708 14.38072949190561 EO-88 1 42017U 17008BX 20177.48080085 .00000923 00000-0 38088-4 0 9995 2 42017 097.3595 244.9260 0004615 302.1247 057.9543 15.26518771186771 CAS-4B 1 42759U 17034B 20177.49229337 -.00000075 00000-0 89305-5 0 9991 2 42759 043.0207 342.8865 0009848 076.9566 020.2055 15.09833878167188 CAS-4A 1 42761U 17034D 20177.50281396 -.00000016 00000-0 12484-4 0 9997 2 42761 043.0205 342.1232 0010008 078.7264 021.0622 15.09912749167189 UCLSat 1 42765U 17036A 20177.23566441 .00000686 00000-0 31577-4 0 9996 2 42765 097.3000 231.2684 0011336 008.3312 351.8111 15.23543417167764 NIUSat 1 42766U 17036B 20177.42542026 .00000551 00000-0 27259-4 0 9994 2 42766 097.2995 228.9028 0015232 358.9574 001.1628 15.21735358166903 LituanicaSAT 2 1 42768U 17036D 20177.40692064 .00001271 00000-0 55095-4 0 9991 2 42768 097.3055 231.4195 0014247 355.3355 004.7747 15.24102453167055 Aalto 1 1 42775U 17036L 20177.27708785 .00000447 00000-0 22618-4 0 9991 2 42775 097.2975 229.1043 0013657 359.6357 000.4867 15.21853501166860 URSA MAIOR 1 42776U 17036M 20177.39693991 .00000491 00000-0 24403-4 0 9990 2 42776 097.2987 229.5084 0013446 359.0324 001.0884 15.22037456166890 Max Valier Sat 1 42778U 17036P 20177.42562822 .00000552 00000-0 26621-4 0 9996 2 42778 097.3042 230.8409 0012071 003.2186 356.9126 15.22634109166943 Pegasus 1 42784U 17036V 20177.59101588 .00000688 00000-0 31909-4 0 9994 2 42784 097.3005 231.3004 0011886 007.4042 352.7368 15.23232786167013 NUDATSat 1 42787U 17036Y 20177.57533176 .00001303 00000-0 55696-4 0 9991 2 42787 097.3047 232.6986 0012180 002.1515 357.9772 15.24553019166932 SUCHAI 1 1 42788U 17036Z 20177.41530934 .00000817 00000-0 36774-4 0 9999 2 42788 097.3014 231.7252 0011378 006.7421 353.3968 15.23785473167092 SKCUBE 1 42789U 17036AA 20177.59356772 .00000767 00000-0 34855-4 0 9997 2 42789 097.3008 231.7489 0011272 006.4978 353.6404 15.23626527167031 VZLUSAT 1 1 42790U 17036AB 20177.56439846 .00001035 00000-0 44849-4 0 9993 2 42790 097.3034 232.6838 0010680 004.8481 355.2859 15.24535866167086 VENTA 1 1 42791U 17036AC 20177.43637002 .00000778 00000-0 35361-4 0 9996 2 42791 097.3006 231.6379 0010967 007.9010 352.2398 15.23609048167005 Robusta 1B 1 42792U 17036AD 20177.41503227 .00000805 00000-0 36276-4 0 9993 2 42792 097.3011 231.8288 0010878 007.8682 352.2724 15.23815193167034 D-SAT 1 42794U 17036AF 20177.56098442 .00000205 00000-0 23268-4 0 9990 2 42794 097.4926 209.8154 0125523 338.6778 020.9236 14.91284426163906 TechnoSat 1 42829U 17042E 20177.60416156 .00000112 00000-0 16579-4 0 9991 2 42829 097.5191 059.0016 0012613 256.7356 103.2456 14.91105376160507 QIKCOM-1 1 42983U 98067NF 20177.56304792 .00002252 00000-0 31694-4 0 9997 2 42983 051.6386 264.6203 0004105 086.4424 273.7039 15.61623073151550 AO-91 1 43017U 17073E 20177.57611675 .00000523 00000-0 45817-4 0 9997 2 43017 097.7228 089.4980 0257710 024.2251 337.0828 14.78948249140369 EcAMSat 1 43019U 98067NG 20177.48323696 .00004593 00000-0 48730-4 0 9992 2 43019 051.6399 250.6693 0004022 072.7733 287.3703 15.66356180234055 PICSAT 1 43132U 18004X 20177.45389684 .00000808 00000-0 35850-4 0 9991 2 43132 097.4468 248.7457 0010353 034.6392 325.5518 15.24436072136271 AO-92 1 43137U 18004AC 20177.49381931 .00000630 00000-0 28836-4 0 9996 2 43137 097.4454 248.6003 0010040 036.7239 323.4685 15.24138042136271 TianYi 2 1 43155U 18008A 20177.55844535 .00000174 00000-0 13932-4 0 9995 2 43155 097.4464 246.4438 0019054 117.9201 358.3989 15.11642261134142 Zhou Enlai 1 43156U 18008B 20177.59483419 .00000752 00000-0 48441-4 0 9995 2 43156 097.4512 246.3272 0016212 116.3986 019.6901 15.11193070134104 TianYi 6 1 43158U 18008D 20177.45999414 .00000627 00000-0 41527-4 0 9998 2 43158 97.4439 245.2427 0014875 114.3738 257.8619 15.10724870134031 S-Net G 1 43186U 18014G 20177.53728945 -.00000062 00000-0 -40533-6 0 9997 2 43186 097.6934 085.2461 0010658 190.9584 169.1407 14.96811073130905 S-Net H 1 43187U 18014H 20177.53711357 -.00000065 00000-0 -65957-6 0 9997 2 43187 097.6932 085.2241 0010657 190.9107 169.1885 14.96810923130903 S-Net J 1 43188U 18014J 20177.53698375 -.00000072 00000-0 -12648-5 0 9998 2 43188 097.6935 085.2539 0010651 191.0161 169.0829 14.96810794130906 S-Net K 1 43189U 18014K 20177.47055870 -.00000060 00000-0 -18725-6 0 9999 2 43189 097.6932 085.1539 0010649 191.0983 169.0005 14.96810078129440 FMN 1 1 43192U 18015A 20177.59934311 .00001250 00000-0 51855-4 0 9992 2 43192 097.4453 307.0487 0017208 063.5881 057.9565 15.25645382133141 Shaonian Xing 1 43199U 18015H 20177.59330668 .00000940 00000-0 39502-4 0 9994 2 43199 097.4235 305.2937 0018406 072.4560 055.8764 15.25795523133208 UBAKUSAT 1 43467U 98067NQ 20177.46946968 .00018588 00000-0 12158-3 0 9993 2 43467 051.6343 240.4613 0001932 029.2367 330.8741 15.75872558121375 EnduroSat One 1 43551U 98067NZ 20177.45029851 .00037794 00000-0 18150-3 0 9997 2 43551 051.6319 237.2730 0002222 058.6684 301.4536 15.82296719111649 EQUISat 1 43552U 98067PA 20177.47931520 .00018760 00000-0 12877-3 0 9997 2 43552 051.6324 247.3958 0002819 106.6976 253.4333 15.74746314111474 UiTMSat 1 1 43589U 98067PD 20177.48754907 .00026723 00000-0 15908-3 0 9996 2 43589 051.6328 245.0096 0001427 115.5836 244.5312 15.77758642107242 Maya 1 1 43590U 98067PE 20177.41708247 .00026365 00000-0 15706-3 0 9995 2 43590 051.6288 245.2791 0001652 097.0205 263.0984 15.77751065107161 Bhutan 1 1 43591U 98067PF 20177.57871459 .00026720 00000-0 15785-3 0 9991 2 43591 051.6345 244.1950 0001522 116.4153 243.7004 15.77931031107199 SiriusSat 1 1 43595U 98067PG 20177.58365473 .00020597 00000-0 13830-3 0 9995 2 43595 051.6291 249.4356 0001877 044.3613 315.7536 15.75185421106308 SiriusSat 2 1 43596U 98067PH 20177.58258651 .00020592 00000-0 13895-3 0 9991 2 43596 051.6296 250.2554 0002148 048.4209 311.6974 15.75070853106293 Tanusha-3 1 43597U 98067PJ 20177.54490708 .00059897 00000-0 22480-3 0 9999 2 43597 051.6261 236.2044 0004106 010.5987 349.5103 15.87247097106476 SurfSat 1 43614U 18070B 20177.46723109 .00001679 00000-0 43296-4 0 9994 2 43614 093.0205 157.8990 0013052 314.4621 045.5565 15.39224335099713 CP-7 DAVE 1 43615U 18070C 20177.49942021 .00001634 00000-0 42360-4 0 9996 2 43615 093.0207 157.9021 0013181 313.7049 046.3112 15.39077169099719 ELFIN-B 1 43616U 18070D 20177.53279996 .00002228 00000-0 55143-4 0 9999 2 43616 093.0170 157.8611 0013487 315.3801 044.6368 15.40438663099767 ELFIN-A 1 43617U 18070E 20177.50019801 .00002610 00000-0 64194-4 0 9995 2 43617 093.0222 158.3660 0012712 312.0846 047.9327 15.40630368099766 STARS-Me Mother 1 43640U 98067PQ 20177.46663256 .00008174 00000-0 83820-4 0 9997 2 43640 051.6345 267.5771 0004138 059.2991 300.8412 15.65958504097988 CubeBel 1 1 43666U 18083E 20177.55250951 .00000716 00000-0 38241-4 0 9990 2 43666 097.4876 203.9369 0014341 338.7043 172.8366 15.18276036091845 Changshagaoxin 1 43669U 18083H 20177.59025472 .00000459 00000-0 26389-4 0 9999 2 43669 097.4761 202.1431 0009948 334.1592 025.9143 15.17305000091763 Ten-Koh 1 43677U 18084G 20177.61369407 .00000153 00000-0 21558-4 0 9995 2 43677 097.8840 294.6559 0017200 128.5832 231.6930 14.90292173090151 PO-101 1 43678U 18084H 20177.38991414 -.00000067 00000-0 -95243-6 0 9999 2 43678 097.8856 295.7929 0010661 144.7220 215.4692 14.91635305090207 IRVINE 01 1 43693U 18088D 20177.44269209 .00001469 00000-0 60773-4 0 9990 2 43693 085.0356 071.7265 0015347 261.9612 097.9889 15.22907113090065 QO-100 1 43700U 18090A 20177.39077076 .00000145 00000-0 00000-0 0 9998 2 43700 000.0159 023.8133 0001107 087.3991 329.2251 01.00271515005794 Reaktor Hello World 1 43743U 18096AA 20177.48661480 .00000805 00000-0 32617-4 0 9995 2 43743 097.4209 251.3200 0019598 099.1939 261.1519 15.27426761087628 MinXSS-2 1 43758U 18099A 20177.49360485 .00000444 00000-0 44999-4 0 9991 2 43758 097.7063 249.3033 0016265 157.0262 203.1690 14.95676271085156 AO-95 1 43770U 18099N 20177.47342618 .00000520 00000-0 52751-4 0 9991 2 43770 097.7054 248.7144 0015095 164.6599 195.5082 14.94994009085119 RANGE-B 1 43772U 18099Q 20177.35880683 .00000504 00000-0 51013-4 0 9991 2 43772 97.7124 249.1196 0015000 152.3152 207.8871 14.95186611 85099 RANGE-A 1 43773U 18099R 20177.33034307 .00000186 00000-0 22203-4 0 9999 2 43773 097.6995 248.2090 0014327 152.6891 207.5085 14.94970145085087 MOVE-II 1 43780U 18099Y 20177.48712191 .00000736 00000-0 71717-4 0 9992 2 43780 097.7060 248.9432 0014152 161.3697 198.8045 14.95410140085110 SNUSat 2 1 43782U 18099AA 20177.43324054 .00000049 00000-0 96185-5 0 9990 2 43782 097.7052 248.8895 0013490 150.9400 209.2574 14.95264346085114 SnugLite 1 43784U 18099AC 20177.46803342 .00000369 00000-0 38603-4 0 9992 2 43784 097.7014 248.7477 0015757 159.7448 200.4401 14.95358884085131 ITASat 1 1 43786U 18099AE 20177.46853303 .00000295 00000-0 31940-4 0 9991 2 43786 097.7068 249.1347 0015860 158.9620 201.2257 14.95331564085135 EAGLET 1 1 43790U 18099AJ 20177.45848400 -.00000086 00000-0 -25878-5 0 9991 2 43790 097.7057 249.3835 0013962 163.0255 197.1436 14.95711453084842 ESEO 1 43792U 18099AL 20177.46945081 .00000222 00000-0 25102-4 0 9996 2 43792 097.7030 249.2144 0013896 159.6488 200.5290 14.95600800084909 CSIM 1 43793U 18099AM 20177.44475228 -.00000125 00000-0 -60060-5 0 9993 2 43793 097.7030 249.1768 0013683 156.6298 203.5548 14.96060033084886 Astrocast 0.1 1 43798U 18099AS 20177.51404901 -.00000360 00000-0 -27015-4 0 9999 2 43798 097.7056 249.5384 0013325 142.8967 217.3178 14.95876763085157 JO-97 1 43803U 18099AX 20177.48212501 .00000671 00000-0 65675-4 0 9992 2 43803 097.7032 248.9650 0015852 158.7642 201.4240 14.95511439085138 Suomi 100 1 43804U 18099AY 20177.14846846 .00000656 00000-0 64283-4 0 9998 2 43804 097.7028 248.6251 0015889 159.9643 200.2205 14.95499661085097 Al Farabi 2 1 43805U 18099AZ 20177.52346208 -.00000013 00000-0 40335-5 0 9999 2 43805 097.7034 249.0798 0015862 159.3011 200.8856 14.95619450085155 PWSat 2 1 43814U 18099BJ 20177.47452106 .00017156 00000-0 97946-3 0 9991 2 43814 097.7891 258.3568 0012001 147.6761 212.5207 15.12743608084936 CHOMPTT 1 43855U 18104G 20177.45265494 .00000648 00000-0 25704-4 0 9995 2 43855 085.0372 169.9186 0018626 029.6692 330.5603 15.22983443084743 ISAT 1 43879U 18111D 20177.52307339 -.00000322 00000-0 -23390-4 0 9992 2 43879 097.7021 084.8249 0012105 212.6663 147.3810 14.96248201081683 UWE-4 1 43880U 18111E 20177.30195466 .00000816 00000-0 76912-4 0 9990 2 43880 97.7040 84.8790 0011140 212.2451 147.8091 14.96487719 79666 Sparrow 1 43881U 18111F 20177.55119957 .00000533 00000-0 51938-4 0 9996 2 43881 097.7035 085.1989 0011595 210.1329 149.9227 14.96537183081703 Lume 1 1 43908U 18111AJ 20177.51272616 .00000628 00000-0 27773-4 0 9999 2 43908 097.2652 077.2108 0022856 112.7717 247.5940 15.25050730083258 FO-98 1 43933U 19003B 20177.60762192 .00000427 00000-0 21499-4 0 9997 2 43933 097.2293 227.0347 0016990 208.1097 151.9224 15.22122215079770 FO-99 1 43937U 19003F 20177.43490498 .00000787 00000-0 34723-4 0 9992 2 43937 097.2256 228.1321 0023638 192.2191 167.8477 15.24400574079856 Delphini 1 1 44030U 98067PW 20177.49768276 .00012682 00000-0 12429-3 0 9997 2 44030 051.6340 273.7903 0003070 107.0286 253.1046 15.66502852079778 MYSat 1 1 44045U 18092F 20177.51515330 .00001387 00000-0 48823-4 0 9995 2 44045 051.6413 003.1426 0011169 356.5744 003.5161 15.36713993076520 AstroCast 0.2 1 44083U 19018F 20177.44413593 .00000469 00000-0 23795-4 0 9997 2 44083 097.4204 238.3791 0014335 138.7911 221.4410 15.21615703068599 AISTechSat 3 1 44103U 19018AB 20177.52113378 .00000555 00000-0 26411-4 0 9991 2 44103 097.4077 238.6289 0014236 152.4836 329.5881 15.23171535068666 AISat 1 1 44104U 19018AC 20177.47108926 .00000578 00000-0 21011-4 0 9995 2 44104 097.4635 247.1952 0058078 182.7711 177.3217 15.31066224069030 Raavana-1 1 44329U 98067QE 20177.59572883 .00006510 00000-0 91591-4 0 9997 2 44329 051.6401 293.3308 0005861 034.9921 325.1456 15.58034276058276 Uguisu 1 44330U 98067QF 20177.60865233 .00006261 00000-0 88629-4 0 9996 2 44330 051.6383 293.4105 0005887 033.8540 326.2827 15.57946727058250 NepaliSat-1 1 44331U 98067QG 20177.58804171 .00006377 00000-0 89791-4 0 9997 2 44331 051.6383 293.2752 0005913 037.1538 322.9863 15.58054856058269 Prox-1 1 44339U 19036A 20177.37184210 .00000680 00000-0 11144-3 0 9993 2 44339 024.0009 062.0564 0011382 236.6239 123.3163 14.53017847053286 Oculus-ASR 1 44348U 19036K 20177.56240079 .00005651 00000-0 80957-4 0 9992 2 44348 028.5162 330.0856 0367388 034.3471 328.0309 15.02526249055024 Armadillo 1 44352U 19036P 20177.49610891 .00007844 00000-0 11301-3 0 9994 2 44352 028.5315 326.0413 0355140 040.1264 322.5000 15.05251873055007 NO-104 1 44354U 19036R 20177.48885609 .00005724 00000-0 80580-4 0 9997 2 44354 028.5305 327.8278 0364267 036.8934 325.6146 15.03538898055033 NO-103 1 44355U 19036S 20177.46827929 .00010845 00000-0 14898-3 0 9995 2 44355 028.5302 318.8679 0343013 051.4500 311.6321 15.08941964055121 CP9 1 44360U 19036X 20177.50774246 .00020978 -53499-5 23095-3 0 9992 2 44360 028.5125 303.7577 0324759 076.8166 286.8447 15.16156047055159 Move-IIb 1 44398U 19038N 20177.55846991 .00000721 00000-0 45050-4 0 9991 2 44398 097.5364 138.6857 0026914 098.8032 261.6248 15.12332950053800 SONATE 1 44400U 19038Q 20177.52869601 .00000260 00000-0 18842-4 0 9992 2 44400 097.5403 138.6714 0026913 097.7707 262.6581 15.11960620053795 BeeSat 9 1 44412U 19038AC 20177.54116824 .00000435 00000-0 28731-4 0 9991 2 44412 097.5388 138.7713 0024381 102.6219 257.7740 15.12307604053498 JAISAT-1 1 44419U 19038F 20177.55887436 .00000506 00000-0 32414-4 0 9995 2 44419 097.5389 139.0593 0023257 101.7025 258.6817 15.12790935053827 LightSail-2 1 44420U 19036AC 20177.34201792 .00002821 00000-0 58157-3 0 9990 2 44420 24.0063 57.9664 0023863 222.6472 137.2166 14.55753951 51462 Taurus 1 1 44530U 19059C 20177.48592582 -.00000267 00000-0 -62813-4 0 9991 2 44530 098.5691 258.6488 0016629 133.4944 226.7622 14.45553202041507 MO-106 1 44830U 19084G 20177.56872807 .00043639 00000-0 23896-3 0 9997 2 44830 096.9725 046.8077 0025054 199.8971 160.1323 15.79246472031738 TRSI-Sat 1 44831U 19084H 20177.57771678 .00039972 00000-0 22176-3 0 9998 2 44831 096.9734 046.8190 0025236 199.1919 160.8401 15.78966136031742 MO-105 1 44832U 19084J 20177.55816344 .00052347 00000-0 26823-3 0 9991 2 44832 096.9726 046.9847 0023740 197.8330 162.2108 15.80717425031742 Duchifat 3 1 44854U 19089C 20177.35422446 .00000185 00000-0 21353-4 0 9991 2 44854 36.9676 51.6599 0006761 128.8568 231.2792 14.99073223 29486 OPS-SAT 1 44878U 19092F 20177.55668687 .00000558 00000-0 32952-4 0 9993 2 44878 097.4687 000.6915 0013358 335.0310 025.0275 15.15495644028768 CAS-6 1 44881U 19093C 20177.43120784 .00000007 00000-0 77398-5 0 9999 2 44881 097.9579 253.4293 0015321 016.3370 343.8333 14.81413072027875 FloripaSat 1 1 44885U 19093G 20177.49357433 .00000146 00000-0 25140-4 0 9993 2 44885 097.9583 253.6427 0015331 026.9713 333.2296 14.82038249027897 RS-44 1 44909U 19096E 20177.56755064 .00000009 00000-0 -80128-5 0 9990 2 44909 082.5212 349.9208 0216902 207.2828 151.6746 12.79707992023224 SwampSat-2 1 45115U 19071E 20177.40697044 .00007110 00000-0 21384-3 0 9995 2 45115 051.6429 324.0667 0013234 089.5532 270.6967 15.35423083022340 HO-107 1 45119U 19071J 20177.41258635 .00001052 00000-0 43387-4 0 9996 2 45119 051.6445 324.8390 0012886 083.5556 276.6893 15.33593639022342 Phoenix 1 45258U 98067RB 20177.56485492 .00002489 00000-0 50033-4 0 9992 2 45258 051.6425 305.8700 0006230 017.3037 342.8164 15.50919197019739 AztechSat-1 1 45261U 98067RE 20177.58396804 .00004973 00000-0 88953-4 0 9998 2 45261 051.6422 305.2539 0007908 031.9681 328.1787 15.51916165019779 QARMAN 1 45263U 98067RG 20177.62284423 .00004257 00000-0 79035-4 0 9994 2 45263 051.6423 305.5113 0007426 029.9193 330.2219 15.51256375019801 Quetzal 1 1 45598U 98067RL 20177.57206800 .00004027 00000-0 77432-4 0 9996 2 45598 051.6432 306.6696 0003351 114.6477 245.4862 15.50400871009058 /EX
